Location: Be?i?
(36.9044°N, 30.1006°E)
Time: 12:28:07
(UTC+00:00)

USA 245 - Pass Details

Date: 05 August 2024
Orbit: 262 x 968 km, 97.9° (Epoch: 03 September)

Event Time Altitude Azimuth Distance (km) Brightness Sun altitude
Exits shadow 19:08:16 46° 153° (SSE) 1,128 4.4 -22.1°
Maximum altitude 19:09:59 78° 77° (ENE) 841 4.0 -22.3°
Drops below altitude 10° 19:14:55 10° 351° (N) 2,202 7.1 -23.0°
Sets 19:16:59 0° 350° (N) 3,017 8.0 -23.3°
